MDT,Max TemperatureF,Mean TemperatureF,Min TemperatureF,Max Dew PointF,MeanDew PointF,Min DewpointF,Max Humidity, Mean Humidity, Min Humidity, Max Sea Level PressureIn, Mean Sea Level PressureIn, Min Sea Level PressureIn, Max VisibilityMiles, Mean VisibilityMiles, Min VisibilityMiles, Max Wind SpeedMPH, Mean Wind SpeedMPH, Max Gust SpeedMPH,PrecipitationIn, CloudCover, Events, WindDirDegrees
2014-3-1,20,11,1,18,6,-4,96,88,80,30.44,30.14,29.98,9,3,0,24,15,28,0.01,8,Fog-Snow,71
2014-3-2,9,4,-1,2,-2,-6,95,84,73,30.56,30.41,30.22,10,9,5,14,7,17,T,6,,83
2014-3-3,48,25,2,29,16,-1,95,70,45,30.48,30.19,29.99,10,10,10,32,17,38,0.00,0,,202
2014-3-4,65,46,26,32,26,21,92,57,21,29.99,29.89,29.76,10,10,10,25,9,30,0.00,0,,271
2014-3-5,51,41,30,34,30,27,100,75,50,30.22,30.13,30.00,10,9,5,22,11,27,0.02,5,Rain-Snow,13
2014-3-6,72,52,32,30,23,11,85,48,10,30.10,29.86,29.64,10,10,10,22,15,28,0.00,0,,205
2014-3-7,51,39,26,36,28,23,100,70,39,30.20,29.98,29.61,10,8,1,32,19,39,0.03,6,Snow,13
2014-3-8,54,40,25,35,27,22,92,62,32,30.35,30.29,30.18,10,10,10,21,11,25,0.00,5,,346
2014-3-9,77,55,33,26,17,3,70,38,6,30.27,30.04,29.91,10,10,10,23,13,27,0.00,0,,254
2014-3-10,73,51,29,24,17,10,63,36,9,29.96,29.79,29.49,10,10,10,22,11,25,0.00,0,,222
2014-3-11,54,40,26,38,31,15,100,62,24,30.34,29.91,29.41,10,8,2,39,24,46,0.02,5,Snow,346
2014-3-12,53,38,22,24,18,11,92,55,18,30.40,30.30,30.20,10,10,10,22,12,26,0.00,0,,290
2014-3-13,66,44,21,17,12,2,68,31,4,30.19,29.94,29.74,10,10,10,20,11,30,0.00,0,,245
2014-3-14,62,45,28,26,20,13,75,46,16,30.06,29.96,29.82,10,10,10,20,12,25,0.00,0,,275
2014-3-15,61,45,29,35,27,18,85,54,23,30.25,29.99,29.81,10,10,10,41,23,51,0.00,4,,333
2014-3-16,52,41,29,29,23,20,85,59,32,30.37,30.21,29.97,10,10,10,22,12,28,0.00,4,,348
2014-3-17,72,55,38,28,19,9,54,32,9,29.92,29.47,29.18,10,10,10,36,19,46,0.00,0,,232
2014-3-18,45,36,26,32,27,14,100,66,31,30.11,29.72,29.31,10,6,0,41,25,50,0.23,5,Fog-Snow,335
2014-3-19,55,38,20,28,21,17,92,59,26,30.25,30.15,30.06,10,10,10,20,11,26,0.00,0,,281
2014-3-20,68,48,27,21,15,1,63,36,8,30.04,29.90,29.78,10,10,10,21,11,27,0.00,0,,213
2014-3-21,54,42,29,27,20,15,78,51,24,30.25,30.03,29.76,10,10,10,30,17,36,0.00,0,,7
2014-3-22,30,22,14,23,19,12,92,81,69,30.57,30.34,30.20,10,8,1,18,12,22,0.04,7,Snow,68
2014-3-23,49,33,16,29,22,15,100,73,46,30.55,30.30,30.07,10,10,10,31,15,37,0.00,4,,196
2014-3-24,45,32,18,27,21,15,100,68,36,30.34,30.25,30.06,10,10,10,24,12,30,0.00,2,,360
2014-3-25,55,41,26,27,21,19,85,56,26,30.42,30.19,29.86,10,10,10,29,16,35,0.00,3,,134
2014-3-26,72,55,37,43,33,21,80,51,22,29.81,29.47,29.23,10,10,10,36,21,42,0.00,0,,186
2014-3-27,55,42,28,37,31,23,85,62,38,29.91,29.58,29.23,10,10,9,33,15,44,T,3,Rain,349
2014-3-28,59,42,24,38,26,18,100,60,19,30.24,30.04,29.91,10,8,1,30,11,35,0.07,4,Snow,304
2014-3-29,70,48,25,25,21,17,81,48,14,30.25,30.07,29.85,10,10,10,32,18,42,0.00,0,,196
2014-3-30,69,56,42,32,24,17,46,31,15,29.82,29.63,29.35,10,10,10,28,12,37,0.00,0,,200
2014-3-31,59,40,21,32,22,13,75,48,21,30.09,29.76,29.36,10,10,5,47,22,58,0.00,2,,324